Overview Statistics Trail Chart Weather Telemetry Raw packets
 

This is the latest recevied weather packets stored in our database for station/object KN6DHD. If no packets are shown the sender has not sent any weather packets the latest 10 day(s).

<< 8 9 10 11 12 13 14 >>
Time Temp. Humidity Pressure Rain* Wind** Luminosity Snow
1777680530 27.22° C 51% 1011.2 hPa 0 mm - 138 W/m² -
1777680228 27.22° C 50% 1011 hPa 0 mm - 165 W/m² -
1777679924 27.78° C 51% 1010.9 hPa 0 mm - 181 W/m² -
1777679619 27.78° C 50% 1011.1 hPa 0 mm - 217 W/m² -
1777679315 28.89° C 49% 1011 hPa 0 mm - 242 W/m² -
1777679012 28.89° C 48% 1011.2 hPa 0 mm - 275 W/m² -
1777678711 28.89° C 47% 1011.6 hPa 0 mm - 275 W/m² -
1777678408 28.89° C 47% 1011.1 hPa 0 mm - 308 W/m² -
1777678103 29.44° C 47% 1011.4 hPa 0 mm - 342 W/m² -
1777677801 29.44° C 46% 1011.3 hPa 0 mm - 362 W/m² -
1777677498 28.89° C 47% 1011.6 hPa 0 mm - 377 W/m² -
1777677196 29.44° C 47% 1011.5 hPa 0 mm - 391 W/m² -
1777676894 28.33° C 50% 1011.4 hPa 0 mm - 440 W/m² -
1777676593 28.33° C 49% 1011.4 hPa 0 mm - 440 W/m² -
1777676290 28.33° C 51% 1011.6 hPa 0 mm - 453 W/m² -
1777675988 28.33° C 50% 1011.6 hPa 0 mm - 424 W/m² -
1777675683 27.78° C 52% 1011.7 hPa 0 mm - 420 W/m² -
1777675381 27.78° C 52% 1011.7 hPa 0 mm - 456 W/m² -
1777675076 28.33° C 50% 1012 hPa 0 mm - 457 W/m² -
1777674773 28.33° C 51% 1012 hPa 0 mm - 511 W/m² -
1777674469 28.33° C 51% 1012.3 hPa 0 mm - 572 W/m² -
1777674167 28.33° C 51% 1012.3 hPa 0 mm - 546 W/m² -
1777673864 27.78° C 53% 1012.2 hPa 0 mm - 548 W/m² -
1777673561 28.33° C 52% 1012.5 hPa 0 mm - 622 W/m² -
1777673258 28.33° C 51% 1012.7 hPa 0 mm - 592 W/m² -

* Rain latest hour (hover to see other rain measurements)
** Current wind speed in m/s (hover to see current wind gust speed)